Regional Weather Roundup
Issued by NWS

Home | Current Version | Previous Version | Text Only | Print | Product List | Glossary Off
Versions: 1 2 3 4 5 6 7 8 9 10 11 12 13 14 15 16 17 18 19 20 21 22 23 24 25 26 27 28 29 30 31 32 33 34 35 36 37 38 39 40 41 42 43 44 45 46 47 48 49 50

000
ASUS43 KFSD 010010
RWRSD

WEATHER ROUNDUP FOR SOUTH DAKOTA
NATIONAL WEATHER SERVICE SIOUX FALLS SD
700 PM CDT SUN AUG 31 2014

NOTE: "FAIR" INDICATES FEW OR NO CLOUDS BELOW 12,000 FEET WITH NO
SIGNIFICANT WEATHER AND/OR OBSTRUCTIONS TO VISIBILITY.


SDZ001>005-009-010-012>017-010100-
NORTHWEST AND NORTH CENTRAL SOUTH DAKOTA

CITY           SKY/WX    TMP DP  RH WIND       PRES   REMARKS
BUFFALO          N/A     57  51  80 NE17      29.74R
FAITH            N/A     60  56  86 NW3       29.76F
MOBRIDGE       PTSUNNY   70  61  73 NE3       29.68R
$$

SDZ012>016-024>037-041>051-057-063-072>074-010100-
SOUTHWEST AND SOUTH CENTRAL SOUTH DAKOTA

CITY           SKY/WX    TMP DP  RH WIND       PRES   REMARKS
RAPID CTY ARPT CLOUDY    59  56  89 W6        29.83R
PIERRE         CLOUDY    69  60  73 NW5       29.68F
CUSTER         CLOUDY    57  46  66 N8        29.91R
ELLSWORTH AFB  CLOUDY    59  57  91 W3        29.83R
PHILIP         HVY RAIN  61  59  93 NW18G29   29.75R FOG
PINE RIDGE     PTSUNNY   59  52  77 N20G28    29.81R
WINNER         FAIR      73  58  59 CALM      29.69F
$$

SDZ004>011-016>023-039-040-010100-
NORTHEAST SOUTH DAKOTA

CITY           SKY/WX    TMP DP  RH WIND       PRES   REMARKS
ABERDEEN       PTSUNNY   68  64  87 W6        29.66F
WATERTOWN      CLOUDY    69  62  78 CALM      29.67F
SISSETON         N/A     67  65  93 S5        29.63F
$$

SDZ017-020-022-023-036>040-048>070-010100-
SOUTHEAST SOUTH DAKOTA

CITY           SKY/WX    TMP DP  RH WIND       PRES   REMARKS
SIOUX FALLS    LGT RAIN  70  61  73 W6        29.69F
HURON          CLOUDY    68  59  73 CALM      29.69R
CHAMBERLAIN    CLOUDY    68  60  76 CALM      29.69S
MITCHELL       CLOUDY    72  60  66 CALM      29.69F
YANKTON        CLOUDY    70  63  78 NW6       29.68F
$$

ABBREVIATIONS USED IN REMARKS
   TC - TEMPERATURE IN CELSIUS
  WCI - WIND CHILL INDEX
   HX - HEAT INDEX
  VSB - VISIBILITY



USA.gov is the U.S. government's official web portal to all federal, state and local government web resources and services.